Location: Le Montet
(44.7477°N, 2.0468°E)
Time: 14:59:59
(UTC+00:00)

Daily predictions for brighter satellites

Satellite Brightness Start Highest point End
(mag) Time Altitude Azimuth Time Altitude Azimuth Time Altitude Azimuth
SL-4 R/B 3.1 19:36:45 10° WNW 19:40:11 32° SW 19:43:40 10° SSE
CSL-04 Debris 4.2 19:35:53 10° SSE 19:41:18 88° ENE 19:46:48 10° NNW
DEBRIS 2.4 19:41:54 10° WSW 19:44:12 87° SSE 19:49:11 10° ENE
Cosmos 2082 Rocket 2.9 19:40:30 10° SSE 19:45:32 33° ESE 19:50:36 10° NE
Cosmos 44 Rocket 3.4 19:40:33 10° SSW 19:45:35 82° ESE 19:50:47 10° NE
BREEZE-M DEB (TANK) 2.2 19:40:12 10° WSW 19:46:21 72° SSE 19:48:51 10° ENE
PAYLOAD B 4.4 19:41:24 10° SSE 19:46:49 63° ENE 19:52:17 10° N
BREEZE-M DEB (TANK) 2.9 19:46:38 10° WNW 19:49:16 79° NNE 19:55:38 10° ESE
SPOT 5 3.3 19:45:21 10° S 19:49:34 57° W 19:53:53 10° NNW
Cosmos 292 Rocket 4.0 19:50:18 10° NNW 19:55:03 71° WSW 19:59:44 10° S
Cosmos 724 4.3 19:50:48 10° SSW 19:56:47 68° ESE 20:02:41 10° NE
ATLAS 3B R/B 3.1 19:49:21 10° NW 19:57:07 76° WSW 20:04:20 10° SSE
ERS-1 Rocket 3.0 19:52:18 10° SSE 19:57:17 74° ENE 20:02:18 10° N
Sich 1 Rocket 3.5 19:53:27 10° S 19:57:47 82° E 20:02:11 10° N
Cosmos 2084 Rocket 4.5 19:54:03 10° NNW 19:57:53 33° NE 20:01:45 10° ESE
IRAS Rocket 4.4 19:55:41 10° SSE 20:01:08 80° WSW 20:06:41 10° NNW
Cosmos 1697 Rocket 3.4 19:56:20 10° NW 20:01:47 53° WSW 20:07:12 10° S
GEOS 3 Rocket 4.1 19:58:56 10° SSE 20:04:11 62° SW 20:09:32 10° NW
ASTEX 1 3.9 20:00:13 10° S 20:05:06 63° W 20:10:03 10° NNW
SKYMED 3 4.3 20:05:49 10° NNE 20:09:44 61° E 20:13:39 10° S
USA 306 2.6 20:06:29 10° WSW 20:10:00 58° NW 20:12:32 10° NE
Cosmos 968 Rocket 4.4 20:07:52 10° NNW 20:12:55 49° WSW 20:17:55 10° S
SL-16 R/B 3.7 20:08:37 10° N 20:13:07 23° NE 20:17:35 10° E
Cosmos 1802 Rocket 3.9 20:07:25 10° S 20:13:36 76° E 20:19:44 10° N
Cosmos 909 Rocket 4.3 20:08:31 10° S 20:14:36 47° ESE 20:20:38 10° NE
CZ-4B R/B 4.4 20:14:26 12° E 20:16:05 16° ENE 20:18:13 10° NNE
Cosmos 1459 Rocket 4.2 20:10:44 10° SSW 20:16:57 78° W 20:23:08 10° N
ADEOS 3.6 20:14:22 10° SSE 20:19:34 87° ENE 20:24:49 10° NNW
Cosmos 1452 Rocket 3.7 20:14:24 10° SSW 20:19:36 78° WNW 20:24:52 10° NNE
COSMOS 2406 4.0 20:15:38 10° SSE 20:20:33 30° ESE 20:25:30 10° NE
Cosmos 1607 3.9 20:14:36 10° SSW 20:20:44 80° ESE 20:27:00 10° NE
Okean 2 Rocket 4.3 20:16:44 10° SSW 20:21:01 45° WNW 20:25:20 10° N
Cosmos 1741 Rocket 4.3 20:17:41 10° NNW 20:22:57 67° WSW 20:28:11 10° S
NOSS 3-3 (A) 3.6 20:22:34 10° SSW 20:27:30 59° ESE 20:33:19 10° NE
USA 305 2.5 20:25:36 10° NW 20:29:44 86° SSW 20:31:58 22° SE
CZ-4 R/B 3.0 20:27:20 10° SSW 20:30:27 27° W 20:33:36 10° NW
Cosmos 1302 Rocket 3.9 20:26:16 10° SSW 20:31:25 83° ESE 20:36:38 10° NNE
Milstar 3 4.3 20:26:51 10° SW 20:31:48 21° S 20:35:48 15° SSE
Cosmos 1980 Rocket 2.4 20:26:11 10° NNW 20:31:51 69° WSW 20:36:54 13° SSE
ISS -2.2 20:30:57 10° W 20:34:07 38° NNW 20:37:17 10° NE
Cosmos 2333 Rocket 3.4 20:31:10 10° N 20:36:08 30° NE 20:39:56 15° ESE
CZ-2C R/B 4.4 20:35:54 11° ENE 20:36:14 11° ENE 20:37:12 10° NE
Okean O Rocket 1.5 20:34:14 17° SSE 20:37:29 76° ENE 20:41:46 10° N
DELTA 2 R/B (1) 3.8 20:34:51 10° WSW 20:40:10 47° S 20:44:16 17° ESE
Cosmos 1455 Rocket 3.7 20:39:19 10° SSW 20:43:39 56° W 20:47:59 10° N
Cosmos 1892 Rocket 4.0 20:40:20 10° NNW 20:44:35 57° W 20:48:32 11° S
Cosmos 2233 Rocket 3.9 20:40:36 10° S 20:46:48 85° E 20:53:00 10° N
CZ-4B R/B 4.2 20:48:17 10° S 20:53:42 46° W 20:59:07 10° NNW
Cosmos 2151 3.5 20:51:02 10° N 20:54:55 39° ENE 20:56:20 29° ESE
Okean-O 2.7 20:52:36 19° S 20:55:41 72° WSW 21:00:03 10° NNW
Cosmos 1544 Rocket 3.7 20:54:37 26° SSE 20:56:49 52° E 21:01:02 10° NNE
Cosmos 2360 Rocket 3.6 20:53:02 10° N 20:57:46 26° NE 21:01:04 16° E
NOSS 3-3 (C) 3.5 20:52:54 10° SSW 20:58:00 81° SE 21:04:05 10° NE
SL-08 R/B 4.2 20:56:08 10° N 21:00:48 51° WNW 21:05:23 10° SW
Cosmos 1782 4.0 20:58:49 10° SW 21:02:05 36° WNW 21:05:23 10° N
USA 186 2.5 21:07:06 29° SW 21:07:53 37° W 21:10:29 10° NNW
SPOT 3 Rocket 3.5 21:05:47 28° SSE 21:08:35 76° ENE 21:13:44 10° N
Tsikada Rocket 4.2 21:03:53 10° NNW 21:10:00 68° W 21:14:53 17° S
Gbstr 26 Del rocket 4.0 21:05:52 10° WNW 21:10:20 35° SW 21:11:50 27° S
Terra 3.7 21:06:44 10° SSW 21:10:35 25° W 21:14:28 10° NW
Cosmos 2228 4.0 21:07:11 10° SSW 21:11:05 42° WNW 21:15:01 10° N
Cosmos 2219 Rocket 3.9 21:08:04 10° N 21:12:27 22° NE 21:15:41 14° E
NOSS 3-4 (A) 4.5 21:06:56 10° NNW 21:13:18 45° NE 21:18:27 20° ESE
NOSS 3-4 (C) 4.5 21:07:33 10° NNW 21:13:56 45° NE 21:19:06 19° ESE
Cosmos 1758 Rocket 3.5 21:11:00 10° N 21:15:26 86° E 21:17:15 35° S
CZ-4C R/B 4.4 21:14:09 10° W 21:17:50 24° NNW 21:22:18 10° NNE
Ariane Rocket 3.0 21:16:11 33° SSE 21:18:27 73° ENE 21:23:31 10° N
Cosmos 1805 3.8 21:18:11 10° N 21:20:57 31° ENE 21:20:57 31° ENE
Cosmos 2322 Rocket 2.8 21:23:00 10° NNW 21:28:25 44° ENE 21:30:45 29° ESE
Cosmos 2082 Rocket 3.5 21:24:07 10° SW 21:29:29 41° NW 21:34:53 10° NNE
Cosmos 1825 Rocket 4.4 21:25:37 10° N 21:29:36 34° ENE 21:30:13 33° E
BREEZE-M DEB 3.9 21:28:14 10° SW 21:32:42 56° SSE 21:39:59 10° ENE
Cosmos 1461 2.6 21:34:50 31° SW 21:36:31 78° NW 21:40:13 10° NNE
Cosmos 1763 Rocket 4.2 21:37:41 33° ESE 21:37:55 33° E 21:42:38 10° NE
Cosmos 1602 Rocket 3.4 21:35:47 10° N 21:40:07 89° E 21:41:03 55° S
Cosmos 1437 Rocket 3.2 21:43:12 37° SW 21:44:10 50° WNW 21:47:39 10° N
IRS-1C Rocket 4.4 21:46:44 35° SSW 21:48:52 62° WSW 21:54:07 10° NNW
CZ-4B R/B 3.7 21:49:07 30° WSW 21:49:34 31° W 21:52:40 10° NNW
Meteor 1-5 Rocket 4.2 21:45:10 10° N 21:50:56 77° E 21:52:52 44° SSE
Cosmos 1464 Rocket 3.9 21:48:40 37° S 21:51:15 78° E 21:57:27 10° N
CZ-4B R/B 3.9 21:50:01 35° SSW 21:51:39 51° W 21:56:21 10° NNW
Cosmos 2278 3.6 21:46:29 10° NNW 21:52:14 89° NE 21:54:01 47° SSE
Cosmos 1777 Rocket 4.0 21:50:42 10° NNW 21:55:57 72° ENE 21:57:09 52° SE
SL-16 R/B 2.3 21:52:03 10° NNW 21:57:41 66° WSW 21:59:25 44° S
Meteor 2-10 4.2 21:54:40 10° N 22:00:26 84° E 22:02:04 49° SSE
Cosmos 1503 Rocket 4.1 21:56:24 10° NNW 22:01:33 62° ENE 22:02:35 50° ESE
Cosmos 2098 Rocket 3.4 22:02:44 42° SSW 22:04:17 67° W 22:08:41 10° N
COSMOS 2406 4.3 21:59:10 10° SW 22:04:38 44° WNW 22:10:08 10° NNE
CZ-2C R/B 4.1 22:07:31 24° WNW 22:07:31 24° WNW 22:09:10 10° NW
Cosmos 1076 Rocket 3.5 22:06:07 10° N 22:10:20 68° ENE 22:10:20 68° ENE
ISS -1.4 22:08:42 10° NW 22:11:30 24° N 22:13:26 15° NE
Cosmos 1606 Rocket 3.6 22:12:11 63° SW 22:12:42 71° W 22:17:02 10° N
Cosmos 1486 Rocket 4.0 22:07:43 10° NNW 22:12:58 73° WSW 22:13:59 56° S
Cosmos 1092 Rocket 4.3 22:07:56 10° N 22:13:57 52° ENE 22:15:26 43° ESE
Okean O Rocket 4.3 22:13:18 10° W 22:14:10 11° W 22:15:03 10° WNW
Cosmos 1354 Rocket 4.3 22:09:21 10° NNW 22:14:31 55° ENE 22:15:24 49° ESE
Cosmos 1428 Rocket 4.4 22:09:53 10° N 22:16:09 84° W 22:17:59 49° S
Cosmos 2333 Rocket 2.7 22:15:10 10° NW 22:20:39 49° WSW 22:21:57 41° SSW
Cosmos 1726 Rocket 3.4 22:22:53 74° NW 22:22:53 74° NW 22:26:46 10° N
DELTA 2 R/B (1) 4.2 22:20:49 10° W 22:24:57 40° SW 22:24:57 40° SW
Cosmos 1833 4.0 22:24:57 57° S 22:26:08 81° ESE 22:31:48 10° NNE
USA 290 4.0 22:27:26 31° N 22:27:26 31° N 22:29:19 10° NNE
Okean 1-7 Rocket 4.2 22:23:47 10° NNW 22:28:04 47° W 22:28:29 45° WSW
Cosmos 2034 Rocket 4.0 22:26:07 46° SSW 22:28:14 84° W 22:34:37 10° N
Cosmos 2297 Rocket 4.3 22:32:37 12° E 22:32:37 12° E 22:33:53 10° ENE
Helios 1A 3.1 22:27:47 10° N 22:31:16 66° NNW 22:31:16 66° NNW
Cosmos 44 4.3 22:30:37 10° NNW 22:35:48 45° NE 22:37:08 37° E
Aureole 1 Rocket 4.2 22:31:49 10° NNW 22:37:29 59° ENE 22:39:06 46° ESE
Cosmos 2360 Rocket 2.4 22:36:32 10° NNW 22:42:06 57° WSW 22:42:48 53° SW
CZ-2C R/B 4.2 22:38:29 10° NNE 22:42:11 48° ENE 22:42:11 48° ENE
Cosmos 540 Rocket 3.5 22:43:19 61° SW 22:44:07 74° WNW 22:49:17 10° NNE
Cosmos 1536 3.7 22:41:03 10° N 22:43:39 42° NNE 22:43:39 42° NNE
Cosmos 2333 4.2 22:39:20 10° NNW 22:45:01 65° WSW 22:45:43 59° SSW
Cosmos 468 Rocket 3.9 22:50:55 73° ESE 22:50:55 73° ESE 22:56:11 10° NNE
Cosmos 2279 Rocket 4.1 22:51:01 55° SE 22:51:53 60° E 22:58:02 10° NNE
Cosmos 1634 Rocket 3.8 22:52:44 62° S 22:53:51 87° E 23:00:05 10° N
Helios 1B rocket 3.5 22:56:47 36° NW 22:56:47 36° NW 22:59:02 10° NNW
RESURS DK-1 3.9 22:53:00 10° N 22:56:20 28° NE 22:56:20 28° NE
Cosmos 2219 Rocket 2.1 22:51:16 10° NNW 22:56:55 70° WSW 22:57:22 66° SW
Spot 4 3.8 23:02:25 73° ENE 23:02:25 73° ENE 23:07:05 10° N
Cosmos-2242 3.7 23:02:46 47° WNW 23:02:46 47° WNW 23:06:24 10° N
ARGOS Delta rocket 4.2 22:58:04 10° NNE 23:03:04 59° E 23:03:04 59° E
NOSS 3-4 (A) 4.2 22:57:41 10° NW 23:04:23 51° WSW 23:05:52 45° SSW
NOSS 3-4 (C) 4.2 22:58:17 10° NW 23:05:01 51° WSW 23:06:31 45° SSW
Meteor 2-2 Rocket 4.4 23:07:26 54° WSW 23:08:26 64° WNW 23:14:09 10° N
Cosmos 2322 Rocket 3.3 23:07:22 10° NW 23:12:14 30° WSW 23:12:32 30° WSW
USA 234 3.1 23:08:56 10° NE 23:15:30 75° SE 23:17:02 55° SSW
Cosmos 1898 Rocket 3.6 23:12:06 10° NNW 23:17:16 64° ENE 23:17:28 64° E
Cosmos 2058 Rocket 4.0 23:18:21 41° WNW 23:18:21 41° WNW 23:22:17 10° N
ACS3 Solar Sail 3.6 23:15:15 10° NE 23:18:48 16° E 23:19:38 16° E
Cosmos 1975 4.1 23:15:27 10° N 23:17:46 35° NNE 23:17:46 35° NNE
GP-B 4.1 23:17:58 10° NNE 23:21:22 39° ENE 23:21:22 39° ENE
SeaSat 1 4.3 23:20:24 18° E 23:22:30 25° NE 23:26:25 10° N
SL-08 ROCKET BODY 4.3 23:16:27 10° N 23:22:37 80° W 23:23:26 68° SSW
Cosmos 2266 Rocket 4.2 23:17:22 10° N 23:23:18 56° ENE 23:24:11 51° ESE
Cosmos 1470 4.5 23:20:47 10° N 23:22:22 26° NNW 23:22:22 26° NNW
Meteor 2-9 Rocket 4.0 23:19:23 10° N 23:24:48 83° E 23:25:00 81° ESE
Cosmos 2221 3.1 23:26:58 51° NNE 23:26:58 51° NNE 23:30:09 10° N
Meteor 1-11 Rocket 3.9 23:20:51 10° N 23:26:26 56° ENE 23:26:58 54° E
ARIANE 5 R/B 3.2 23:28:49 52° WNW 23:28:49 52° WNW 23:32:31 10° NNW
ALOS 2 3.0 23:29:45 58° NW 23:29:45 58° NW 23:33:25 10° NNW
Meteor 1-10 Rocket 4.3 23:29:08 63° ESE 23:29:29 64° E 23:35:21 10° NNE
Cosmos 2237 Rocket 3.5 23:25:26 10° N 23:30:36 34° NE 23:32:40 26° E
COSMOS 2428 2.6 23:31:20 10° NNW 23:37:04 83° ENE 23:37:28 76° ESE
CZ-2C R/B 3.0 23:38:34 50° E 23:39:06 52° ENE 23:44:09 10° N
Cosmos 2227 Rocket 3.9 23:41:27 20° E 23:41:27 20° E 23:45:08 10° NE
Meteor 1-27 Rocket 4.0 23:46:01 56° ESE 23:46:21 57° E 23:52:01 10° NNE
Cosmos 1238 Rocket 4.3 23:49:31 30° NE 23:49:31 30° NE 23:52:11 10° NNE
ISS -0.9 23:45:40 10° NW 23:46:22 15° NW 23:46:22 15° NW
BREEZE-M DEB (TANK) 3.5 23:42:48 10° WNW 23:49:21 77° NNE 23:54:41 10° E
Cosmos 841 Rocket 3.5 23:49:46 72° WNW 23:49:51 72° WNW 23:55:06 10° NNE
Meteor 1-14 Rocket 4.4 23:45:40 10° NNW 23:51:05 56° W 23:51:10 56° W
PSLV R/B 4.2 23:47:11 10° N 23:50:51 49° NW 23:50:51 49° NW
Cosmos 2263 Rocket 4.1 23:54:44 16° E 23:54:45 16° E 23:57:56 10° ENE
